Location: Newark
(47.5833°N, 8.1500°E)
Time: 20:24:08
(UTC+00:00)

Vanguard 2 Rocket - Pass Details

Date: 03 November 2020
Orbit: 553 x 3326 km, 32.9° (Epoch: 04 December)

Event Time Altitude Azimuth Distance (km) Brightness Sun altitude
Rises 16:59:10 0° 231° (SW) 2,910 10.8 -9.3°
Reaches altitude 10° 17:03:22 10° 191° (S) 1,832 8.8 -10.0°
Maximum altitude 17:04:16 11° 177° (S) 1,781 8.5 -10.2°
Drops below altitude 10° 17:05:10 10° 164° (SSE) 1,819 8.4 -10.3°
Enters shadow 17:08:16 - 130° (SE) 2,501 8.8 -10.8°
